DUZEAR1 KLAM-KSKX

Flight info

Callsign DUZEAR1
Flight time 0h 14m
Altitude 10500
Route KLAM/09 N0262F105 DCT YUNSU DCT SUTGE DCT ZEDAN DCT NAXUE DCT DIXAN DCT KSKX/04
Aircraft PC12/L-SDE2FGIRWY/SB1

Departure

Time 2026-04-23 00:22
Airport Los Alamos Airport (KLAM)

Arrival

Time 2026-04-23 00:36
Airport Taos Regional Airport (KSKX)
Time Latitude Longitude Altitude Speed Heading
2026-04-23 00:10 35.88163 -106.27484 7163 ft 0 kts 282°
2026-04-23 00:13 35.88163 -106.27483 7163 ft 0 kts 282°
2026-04-23 00:19 35.88163 -106.27484 7163 ft 0 kts 282°
2026-04-23 00:20 35.88159 -106.27474 7152 ft 8 kts 86°
2026-04-23 00:20 35.88088 -106.27472 7154 ft 15 kts 250°
2026-04-23 00:20 35.88112 -106.27650 7172 ft 26 kts 282°
2026-04-23 00:20 35.88130 -106.27826 7179 ft 16 kts 277°
2026-04-23 00:21 35.88133 -106.27768 7176 ft 7 kts 101°
2026-04-23 00:21 35.88132 -106.27766 7176 ft 0 kts 100°
2026-04-23 00:21 35.88132 -106.27763 7176 ft 4 kts 100°
2026-04-23 00:21 35.88078 -106.27468 7158 ft 74 kts 103°
2026-04-23 00:22 35.87921 -106.26589 7153 ft 129 kts 102°
2026-04-23 00:22 35.87714 -106.25383 7471 ft 154 kts 104°
2026-04-23 00:22 35.87477 -106.23971 7789 ft 178 kts 105°
2026-04-23 00:22 35.87181 -106.22487 8484 ft 182 kts 106°
2026-04-23 00:23 35.86879 -106.20860 8906 ft 210 kts 105°
2026-04-23 00:23 35.86540 -106.18962 9011 ft 241 kts 104°
2026-04-23 00:23 35.86203 -106.16860 9007 ft 257 kts 97°
2026-04-23 00:23 35.86335 -106.14646 9003 ft 264 kts 77°
2026-04-23 00:24 35.87030 -106.12546 8978 ft 265 kts 57°
2026-04-23 00:24 35.88084 -106.10689 8969 ft 264 kts 52°
2026-04-23 00:24 35.89148 -106.08843 8954 ft 265 kts 53°
2026-04-23 00:24 35.90209 -106.06980 8935 ft 266 kts 53°
2026-04-23 00:25 35.91267 -106.05121 8924 ft 265 kts 54°
2026-04-23 00:25 35.92412 -106.03336 8974 ft 266 kts 41°
2026-04-23 00:25 35.93915 -106.02009 8967 ft 265 kts 24°
2026-04-23 00:25 35.95633 -106.01246 8952 ft 260 kts
2026-04-23 00:26 35.97405 -106.00809 8952 ft 260 kts
2026-04-23 00:26 35.99188 -106.00348 8947 ft 262 kts
2026-04-23 00:26 36.00975 -105.99882 8943 ft 264 kts
2026-04-23 00:26 36.02779 -105.99418 8829 ft 266 kts
2026-04-23 00:27 36.04586 -105.99029 8820 ft 262 kts
2026-04-23 00:27 36.06381 -105.98780 8801 ft 260 kts
2026-04-23 00:27 36.08179 -105.98516 8793 ft 260 kts
2026-04-23 00:27 36.09983 -105.98243 8772 ft 262 kts
2026-04-23 00:28 36.11792 -105.97973 8760 ft 262 kts
2026-04-23 00:28 36.13600 -105.97706 8745 ft 261 kts
2026-04-23 00:28 36.15401 -105.97441 8744 ft 262 kts
2026-04-23 00:28 36.17209 -105.97168 8739 ft 261 kts
2026-04-23 00:29 36.19013 -105.96898 8743 ft 261 kts
2026-04-23 00:29 36.20819 -105.96632 8720 ft 260 kts
2026-04-23 00:29 36.22607 -105.96368 8744 ft 261 kts
2026-04-23 00:29 36.23216 -105.96280 8745 ft 261 kts
2026-04-23 00:30 36.24281 -105.96120 8751 ft 261 kts
2026-04-23 00:30 36.26088 -105.95841 8746 ft 262 kts
2026-04-23 00:30 36.27847 -105.95195 8736 ft 267 kts 19°
2026-04-23 00:30 36.29312 -105.94102 8731 ft 236 kts 32°
2026-04-23 00:31 36.30553 -105.92740 8733 ft 237 kts 38°
2026-04-23 00:31 36.31751 -105.91373 8735 ft 230 kts 38°
2026-04-23 00:31 36.32942 -105.90027 8736 ft 234 kts 37°
2026-04-23 00:31 36.34117 -105.88650 8737 ft 233 kts 44°
2026-04-23 00:32 36.35071 -105.86985 8739 ft 238 kts 53°
2026-04-23 00:32 36.35960 -105.85330 8731 ft 212 kts 51°
2026-04-23 00:32 36.36740 -105.83916 8743 ft 189 kts 51°
2026-04-23 00:32 36.37489 -105.82553 8739 ft 194 kts 52°
2026-04-23 00:33 36.38247 -105.81166 8742 ft 195 kts 52°
2026-04-23 00:33 36.39018 -105.79758 8751 ft 198 kts 53°
2026-04-23 00:33 36.39731 -105.78432 8729 ft 167 kts 53°
2026-04-23 00:33 36.40359 -105.77284 8562 ft 162 kts 51°
2026-04-23 00:34 36.40982 -105.76138 8362 ft 157 kts 52°
2026-04-23 00:34 36.41567 -105.75062 8165 ft 141 kts 51°
2026-04-23 00:34 36.42097 -105.74085 7999 ft 134 kts 51°
2026-04-23 00:34 36.42619 -105.73132 7832 ft 133 kts 54°
2026-04-23 00:35 36.43126 -105.72188 7611 ft 128 kts 46°
2026-04-23 00:35 36.43636 -105.71255 7518 ft 131 kts 59°
2026-04-23 00:35 36.44136 -105.70342 7386 ft 126 kts 52°
2026-04-23 00:35 36.44609 -105.69473 7332 ft 120 kts 53°
2026-04-23 00:36 36.45085 -105.68600 7220 ft 124 kts 55°
2026-04-23 00:36 36.45553 -105.67734 7053 ft 114 kts 57°
2026-04-23 00:36 36.45861 -105.67164 7055 ft 20 kts 56°
2026-04-23 00:36 36.45950 -105.67001 7051 ft 19 kts 56°
2026-04-23 00:37 36.46012 -105.66906 7051 ft 12 kts
2026-04-23 00:37 36.46054 -105.66966 7052 ft 14 kts 244°
2026-04-23 00:37 36.45984 -105.67092 7053 ft 11 kts 243°
2026-04-23 00:37 36.45994 -105.67182 7056 ft 3 kts 238°
2026-04-23 00:38 36.45990 -105.67191 7056 ft 0 kts 243°